{"data":{"norad_id":57910,"intl_designator":"2023-146V","name":"STARLINK-30453","alt_names":[],"object_type":"PAYLOAD","status":"ACTIVE","operator":null,"country":"US","launch_date":"2023-09-20","launch_site_code":"AFETR","launch_vehicle":null,"mission":null,"orbit_class":"UNKNOWN","rcs_meters":null,"size_class":null,"mass_kg":null,"dimensions":null,"purposes":["comms"],"wikipedia_slug":null,"has_3d_model":false,"image_url":null,"decayed_at":null,"tle_current":{"epoch":"2026-05-24T16:14:44.365632Z","epoch_age_seconds":99146,"freshness":"FRESH","line1":"1 57910U 23146V   26144.67690238  .00000895  00000+0  42063-4 0  9996","line2":"2 57910  43.0021 241.9941 0001804 272.2394  87.8251 15.27579783147654","mean_motion":15.27579783,"eccentricity":0.0001804,"inclination_deg":43.0021,"raan_deg":241.9941,"arg_perigee_deg":272.2394,"mean_anomaly_deg":87.8251,"bstar":4.2063e-5,"rev_number":14765,"period_min":94.266762104693,"perigee_km":481.81198772685,"apogee_km":484.28750390474,"semimajor_km":6861.1867458158,"source":"CELESTRAK","updated_at":"2026-05-25T13:38:18.455589Z"}}}